Regional Weather Roundup
Issued by NWS Cleveland, OH

Home | Current Version | Previous Version | Text Only | Print | Product List | Glossary Off
Versions: 1 2 3 4 5 6 7 8 9 10 11 12 13 14 15 16 17 18 19 20 21 22 23 24 25 26 27 28 29 30 31 32 33 34 35 36 37 38 39 40 41 42 43 44 45 46 47 48 49 50

060
ASUS41 KCLE 201610
RWRCLE
OHIO REGIONAL WEATHER ROUNDUP
NATIONAL WEATHER SERVICE CLEVELAND, OH
1100 AM EST FRI JAN 20 2017

NOTE: "FAIR" INDICATES FEW OR NO CLOUDS BELOW 12,000 FEET WITH NO
SIGNIFICANT WEATHER AND/OR OBSTRUCTIONS TO VISIBILITY.

OHZ001>008-015>018-024>027-034-035-043-044-201700-
   NORTHWEST OHIO

CITY           SKY/WX    TMP DP  RH WIND       PRES   REMARKS
DEFIANCE       CLOUDY    38  38 100 CALM      29.65S FOG
FINDLAY        CLOUDY    49  46  90 SW10      29.64R
TOLEDO EXPRESS FOG       37  37 100 E5        29.64S VSB 1/2
TOLEDO EXEC    FOG       38  38 100 NE3       29.66R VSB 3/4
LIMA           CLOUDY    49  49 100 SW13      29.65R
$$

OHZ009>014-019>023-028>033-038-089-201700-
   NORTHEAST OHIO

CITY           SKY/WX    TMP DP  RH WIND       PRES   REMARKS
CLE-HOPKINS    CLOUDY    48  43  82 S12       29.68S
CLE-LAKEFRONT  LGT RAIN  45  42  89 S16G24    29.65S
CUY CO. ARPT   LGT RAIN  45  43  93 S12G23    29.67S FOG
LORAIN-ELYRIA  CLOUDY    44  41  89 S12       29.66R
ASHTABULA      CLOUDY    40  39  97 SE10      29.70F FOG
AKRON-CANTON   LGT RAIN  46  43  89 S12       29.68S FOG
WOOSTER        CLOUDY    46  44  93 SW13      29.68R
MANSFIELD      CLOUDY    47  47 100 S13       29.66R FOG
YOUNGSTOWN     LGT RAIN  42  40  92 SE10      29.70F FOG
$$

OHZ042-051>053-060>062-070>072-077>081-201700-
  SOUTHWEST OHIO

CITY           SKY/WX    TMP DP  RH WIND       PRES   REMARKS
CINC-COVINGTON CLOUDY    56  53  90 SW13G20   29.73R
CINC-LUNKEN    CLOUDY    58  55  90 SW10      29.74R
HAMILTON       CLOUDY    57  54  89 SW9       29.73R
DAYTON         LGT RAIN  53  53 100 SW15G23   29.69R FOG
WRIGHT-PAT AFB PTSUNNY   56  56 100 SW18G28   29.69S
DAYTON GENERAL CLOUDY    56  52  86 SW13G21   29.70R
WILMINGTON     CLOUDY    55  53  93 SW16      29.72R
$$

OHZ036-037-039>041-045>050-054>059-063>069-073>076-082>088-201700-
  CENTRAL AND SOUTHEAST OHIO

CITY           SKY/WX    TMP DP  RH WIND       PRES   REMARKS
COLUMBUS       CLOUDY    55  51  86 SW10G21   29.71R
OSU AIRPORT    CLOUDY    52  52 100 S7        29.70R
BOLTON FIELD   CLOUDY    55  54  94 SW16G23   29.71R
RICKENBACK AFB NOT AVBL
NEWARK         CLOUDY    54  50  86 SW12      29.71R
MARION         CLOUDY    49  48  97 SW13      29.67R FOG
LANCASTER      CLOUDY    56  52  86 S9        29.73R
ZANESVILLE     CLOUDY    52  49  89 SW9       29.73R
NEW PHILLY     NOT AVBL
$$




USA.gov is the U.S. government's official web portal to all federal, state and local government web resources and services.